OPS 5712 (P/L 153) (2874 NORAD) Tracking and Keplerian Element Data

This shows tracking and keplerian element data for the satellite.

Feedback or suggestion? Click here.




ElementValue
Catalog2874
NameOPS 5712 (P/L 153)
Epoch Orbit93716
Epoch Day34.63250629
Epoch Year2025
RAAN103.8254
Inclination69.9737
Eccentricity0.0005217
Argument of Perigee143.4331
Mean Anonmoly216.7132
Mean Motion13.96708589
Decay Rate1.14E-06
L11 02874U 67053H 25034.63250629 .00000114 00000+0 12069-3 0 9995
L22 02874 69.9737 103.8254 0005217 143.4331 216.7132 13.96708589937165



Live tracking and technical data element details for OPS 5712 (P/L 153) (NORAD 2874). OPS 5712 (P/L 153) can be tracked NOW for your location showing map with azimuth and elevation plus other details from your city location.







IsCatalogInMostPopularTable: catalog: 2874, numindb: 371
Update: records affected: 1



GetName: 2874 OPS 5712 (P/L 153)

Hit Count: updated at: Sat, 17 May 2025 09:45:51 GMT